GFSSE_sfc_dewp_078.txt.gz
Dewpoint
69 71 72 72 72 72 72 71 71 71 72 72 72 72 72 71 71 71 70 70 70 71 70 71 71 71 71 70 70 71 70 70 69 69 69 69 69 68 68 69 68 66 69
69 71 71 72 72 72 72 72 71 72 72 72 72 71 71 71 70 70 70 70 71 71 70 70 70 69 69 69 70 70 69 69 68 68 69 68 68 67 67 68 68 67 68
70 71 71 71 72 72 72 72 72 72 72 72 71 71 71 70 70 70 70 70 70 70 69 69 69 69 69 69 69 69 69 68 68 68 67 65 64 67 67 67 68 68 67
69 71 70 71 71 72 72 72 72 72 72 71 71 71 71 70 71 71 70 69 69 70 69 68 68 68 69 69 68 68 67 67 67 66 64 64 64 67 67 66 66 65 65
69 70 71 71 71 71 71 71 71 71 71 71 70 71 71 71 71 71 70 70 69 69 67 67 68 69 68 68 67 67 66 65 65 63 62 64 64 65 66 64 63 62 62
67 69 70 70 71 71 71 71 71 71 70 70 70 71 71 71 71 70 70 69 69 69 69 68 69 69 68 67 66 66 64 64 62 61 61 62 61 65 64 63 62 62 61
66 68 70 69 70 71 71 71 71 70 70 69 69 70 70 71 70 70 69 69 69 68 68 68 68 67 66 64 64 64 63 62 58 59 59 60 59 62 61 60 60 60 60
67 67 68 70 70 70 70 70 68 66 66 64 63 62 67 69 69 69 69 68 68 68 68 67 66 65 64 63 64 62 62 61 57 56 56 56 61 61 60 59 59 59 59
67 67 67 68 70 70 69 67 65 65 65 65 63 62 64 67 67 68 68 68 67 67 67 66 65 64 63 63 62 62 60 60 56 56 56 55 60 60 60 59 59 59 59
65 66 66 67 66 66 66 66 65 66 66 65 64 62 62 66 67 67 67 67 66 66 66 66 64 63 63 62 62 61 60 60 55 56 56 57 60 60 59 59 59 58 58
64 64 66 66 66 64 63 65 65 66 64 64 63 62 65 65 65 66 66 66 66 65 65 65 63 62 62 62 61 60 59 55 55 56 56 60 59 59 59 58 58 58 58
62 63 63 64 63 63 63 63 63 63 63 62 62 61 65 65 65 64 65 65 65 65 64 64 62 61 57 56 57 58 55 55 56 56 57 60 59 59 59 58 58 58 58
60 61 63 63 63 62 62 61 61 61 62 62 62 60 64 65 65 64 64 63 63 63 61 60 58 54 53 52 53 54 55 55 55 56 58 60 59 59 59 58 58 58 57
59 60 60 61 62 62 62 61 61 61 62 62 62 60 61 64 64 63 62 62 61 59 58 56 53 52 52 52 53 54 54 55 55 56 58 60 60 59 58 58 58 58 57
58 59 59 60 61 63 62 62 62 60 61 61 61 61 61 63 62 61 60 60 58 57 55 53 52 51 51 53 53 53 54 55 55 56 57 60 60 59 58 58 57 57 57
59 58 57 57 60 63 63 62 62 60 61 61 64 62 62 62 61 60 59 57 56 55 53 52 52 49 50 52 53 53 54 55 55 55 56 57 59 59 59 58 57 57 57
59 57 56 56 58 60 62 63 63 62 62 62 64 64 63 60 59 59 56 55 55 53 51 52 52 50 49 52 53 54 54 54 55 55 55 55 57 58 59 58 58 57 57
57 57 57 59 57 60 61 63 63 63 62 63 63 64 62 59 58 55 53 54 53 51 51 53 53 50 50 51 53 53 53 54 54 55 55 55 55 55 58 59 59 58 57
57 56 56 57 58 60 60 62 62 63 62 63 63 62 62 58 57 53 51 54 53 50 51 53 53 51 50 50 52 53 54 54 54 54 54 55 55 55 56 58 59 59 59
57 56 56 57 58 59 60 61 61 62 62 62 62 61 60 59 57 53 55 58 54 52 54 54 53 52 50 50 48 50 53 54 54 54 54 54 55 55 56 56 57 57 58
56 56 56 57 59 59 59 58 59 58 60 60 60 59 59 58 58 56 54 59 57 56 55 54 52 50 51 50 48 48 48 52 53 54 54 54 54 55 55 55 56 56 56
57 56 57 57 58 57 58 58 58 58 59 59 59 58 58 58 57 57 55 58 58 57 56 54 52 53 52 50 48 47 45 47 49 49 52 53 53 54 54 55 55 56 56
56 56 57 57 57 58 58 58 58 58 58 58 58 58 58 58 57 57 58 58 58 57 56 54 53 52 52 51 48 50 48 44 48 49 48 49 50 52 53 54 54 55 56
56 57 57 57 58 58 57 57 56 56 55 57 57 57 56 57 57 57 57 58 58 57 57 57 56 53 53 51 52 55 54 53 48 49 52 49 48 47 48 50 53 54 54
56 56 56 57 57 58 57 57 56 55 55 56 57 56 56 57 57 57 57 57 57 57 57 57 57 55 55 54 49 54 54 54 52 49 47 50 51 50 48 48 48 49 53
55 56 56 56 57 58 57 57 56 55 55 55 55 55 55 56 57 57 57 57 57 57 55 57 58 56 55 55 54 54 53 52 51 50 48 49 49 51 51 50 49 49 48

GFSSE_sfc_dewp_081.txt.gz
Dewpoint
68 70 71 72 72 72 71 71 71 72 72 73 73 72 72 72 72 71 71 71 71 71 71 71 72 72 70 70 70 70 70 70 70 69 69 69 69 69 69 68 68 66 69
68 70 71 71 72 72 71 71 71 72 72 72 72 72 71 71 71 71 71 71 71 71 69 70 71 70 69 70 70 70 70 69 68 68 68 68 68 68 68 68 68 67 69
69 70 71 71 72 72 71 72 72 72 72 72 72 71 71 71 71 71 71 71 70 70 70 70 70 70 69 70 70 70 69 68 68 68 68 65 65 67 68 68 68 68 67
70 70 70 71 71 71 71 72 72 72 72 71 71 71 71 71 71 71 70 70 70 71 70 69 69 69 69 69 69 69 68 68 67 67 64 64 64 67 66 66 66 66 66
70 70 70 71 71 71 71 71 71 71 71 71 71 71 70 70 70 71 70 70 70 70 70 69 69 69 69 68 68 67 67 67 66 64 64 64 64 65 66 65 64 64 64
69 70 69 70 70 71 71 71 71 71 70 70 70 70 70 71 71 70 69 70 70 70 68 70 69 69 67 67 66 66 65 65 64 62 63 64 63 65 64 63 63 62 62
67 69 70 69 70 71 71 71 71 71 70 70 69 69 70 70 70 70 69 69 68 67 68 69 69 68 67 66 65 65 64 64 61 60 60 61 62 64 64 63 60 61 61
66 68 69 70 70 70 71 70 69 67 67 66 65 66 68 68 68 68 68 69 68 68 68 68 67 67 65 65 64 63 63 62 59 58 59 60 62 62 61 61 59 60 59
66 67 68 69 70 69 69 68 68 65 64 64 64 63 65 65 66 66 68 68 68 68 67 67 66 64 65 65 64 62 61 60 55 55 57 60 62 59 61 59 59 59 59
65 66 66 68 70 70 68 66 66 65 64 64 64 64 62 64 66 67 66 67 67 67 67 66 64 64 65 64 63 61 61 60 56 55 54 56 59 60 59 59 59 59 58
64 64 65 65 66 67 67 66 66 66 65 65 64 64 63 64 64 65 64 66 67 66 65 64 63 63 63 62 62 61 59 56 55 55 57 58 60 60 59 59 59 58 57
61 63 64 63 64 63 66 66 65 65 65 64 63 62 62 63 64 64 64 65 65 65 64 63 62 63 61 59 59 59 56 56 56 56 57 60 60 60 59 58 58 58 57
61 61 62 63 62 62 64 64 64 64 63 62 61 62 64 64 64 64 64 64 64 64 61 60 60 58 57 57 55 55 55 56 56 56 58 60 60 59 59 58 58 58 57
59 60 61 62 63 63 62 62 62 62 63 62 60 61 64 63 63 64 64 63 62 61 59 57 54 53 55 54 54 55 55 55 56 57 58 60 60 59 59 59 58 58 57
58 59 59 60 62 62 62 61 61 61 62 62 61 60 63 62 62 64 62 62 61 59 57 54 52 52 53 53 54 54 54 55 56 57 57 60 60 60 59 59 59 58 57
58 58 58 59 60 63 62 61 60 61 61 61 61 60 62 63 63 62 61 60 59 58 55 53 51 52 53 53 54 54 54 55 56 56 57 57 59 59 59 58 58 58 57
58 58 57 57 59 62 62 61 61 60 61 61 61 61 60 63 63 61 60 58 57 55 52 52 50 50 53 53 53 54 55 55 55 55 56 57 57 59 59 59 58 57 57
57 57 56 57 57 61 63 62 62 60 61 61 63 62 61 63 62 60 59 57 56 53 52 51 50 49 53 53 53 54 54 55 55 55 55 55 56 56 58 59 59 59 57
57 56 56 55 56 60 61 63 63 61 61 62 63 63 61 61 60 58 56 54 54 51 51 52 51 49 52 53 53 53 54 54 54 54 54 54 54 55 56 59 59 58 58
56 55 56 56 58 60 60 62 62 62 61 62 63 62 61 60 57 55 54 53 52 49 52 53 50 50 51 52 52 53 53 54 54 54 54 54 54 55 55 56 57 57 58
55 55 56 56 57 59 59 59 60 60 61 62 62 62 60 58 55 52 53 53 52 50 52 53 52 50 50 51 50 49 50 53 53 53 54 54 54 55 55 55 56 56 56
55 55 55 55 57 56 59 58 59 60 60 61 61 61 61 58 54 52 54 51 52 52 54 54 52 50 50 50 49 48 47 48 50 52 54 54 54 54 55 55 55 56 56
55 55 55 56 56 57 58 58 58 59 59 59 59 60 60 59 57 52 54 53 54 54 54 54 52 50 50 50 49 49 46 45 49 49 50 53 53 53 54 54 55 55 56
55 56 55 55 57 57 58 57 57 57 56 57 58 59 58 59 58 57 56 58 55 55 55 55 54 51 53 49 50 53 51 50 47 47 51 49 52 52 53 53 54 54 55
55 55 55 55 57 57 57 57 56 56 56 58 58 57 57 58 59 58 58 58 58 57 57 56 55 54 53 51 49 53 53 53 51 50 48 50 49 48 50 52 53 53 54
55 55 55 56 55 57 57 56 55 55 55 56 57 57 57 57 58 58 58 58 58 57 57 57 57 55 55 53 50 53 52 52 51 50 49 48 49 50 50 48 48 49 51

GFSSE_sfc_dewp_084.txt.gz
Dewpoint
67 69 71 70 70 71 72 72 72 72 73 72 72 72 72 72 72 72 72 72 72 72 72 71 72 72 71 70 71 70 71 70 70 70 70 69 68 69 69 69 69 67 69
68 70 70 70 71 71 72 72 72 72 73 73 72 72 72 72 72 72 72 72 72 72 71 72 72 71 70 70 70 70 70 70 69 69 69 69 68 68 68 69 68 67 69
68 70 70 70 71 71 72 72 72 73 73 73 72 72 72 72 71 72 72 71 71 70 69 71 71 70 70 70 70 70 69 69 69 68 68 66 66 68 68 68 68 68 68
68 70 70 71 71 70 71 71 72 71 72 72 72 72 72 72 71 72 71 70 70 71 71 71 70 70 70 70 69 69 69 68 68 67 65 65 64 67 68 67 67 67 67
69 69 70 71 70 69 71 71 71 72 70 72 72 72 72 71 71 71 70 70 71 71 71 70 70 70 70 69 69 68 68 67 67 65 64 65 65 66 66 65 65 66 66
69 69 69 70 70 70 71 71 71 71 71 71 71 71 71 71 71 71 70 70 70 70 70 70 70 70 68 68 67 67 67 66 65 64 64 65 64 65 64 63 64 64 64
68 68 69 69 70 69 70 71 71 71 70 70 70 69 70 69 69 70 68 68 69 69 69 69 69 68 68 67 67 66 65 65 62 62 63 63 63 64 64 62 62 61 62
67 68 68 69 70 69 70 70 70 70 70 69 68 68 68 69 68 68 68 68 68 68 69 68 68 67 67 66 66 64 64 63 60 60 61 63 65 64 63 61 61 61 61
66 67 68 68 70 69 69 68 68 68 67 67 67 67 67 67 67 67 68 68 67 67 68 68 67 66 66 65 64 63 62 61 57 59 60 61 64 63 62 61 59 59 59
65 65 67 68 69 69 69 67 66 65 65 65 66 65 65 64 65 66 67 66 67 67 68 67 65 66 65 64 63 62 61 60 55 56 59 60 63 62 60 59 59 58 58
63 64 66 67 68 69 67 67 66 65 65 64 64 64 63 63 63 63 66 66 65 66 66 65 65 65 64 63 63 61 59 56 55 55 56 62 59 59 59 58 58 58 58
62 63 64 66 66 66 67 66 65 64 64 63 63 63 62 63 62 62 65 65 65 65 64 64 65 64 62 60 60 59 56 56 56 57 57 61 60 59 60 59 58 57 58
62 62 63 63 65 64 64 65 65 65 64 64 63 63 62 62 63 63 64 64 64 64 61 61 63 60 59 59 56 56 56 56 57 57 58 61 61 59 59 58 59 59 59
60 62 63 64 63 64 64 64 64 64 64 63 63 62 62 62 63 63 63 63 63 62 59 59 59 58 57 56 55 56 56 56 56 57 58 60 61 59 59 60 59 59 58
59 60 61 63 63 63 62 63 63 63 63 63 61 62 62 62 62 62 63 63 63 60 57 55 55 56 55 55 55 55 55 56 56 57 58 60 60 60 60 60 59 58 58
58 59 60 62 63 63 62 62 62 62 62 62 61 61 63 63 63 62 63 62 61 59 55 53 54 54 54 54 54 55 55 56 57 57 57 58 59 60 58 58 58 58 58
58 58 59 59 61 62 62 61 61 61 61 61 61 60 62 62 62 63 62 61 60 59 54 52 52 53 54 54 54 55 55 56 56 56 57 57 58 59 59 60 59 58 57
57 57 57 59 61 61 61 61 61 60 60 61 61 60 62 62 62 62 61 60 59 57 53 52 52 53 53 54 54 54 55 55 56 56 56 57 57 57 58 59 59 59 57
57 56 56 56 59 61 61 61 61 60 60 60 61 61 60 62 63 62 61 59 56 55 54 51 51 53 53 53 53 54 54 54 55 55 55 55 56 56 56 58 58 58 59
56 55 56 55 57 60 62 63 62 61 60 61 61 62 61 61 62 61 59 57 56 54 53 51 50 52 53 53 53 53 53 54 54 54 54 55 55 55 56 57 57 57 58
55 56 56 55 55 58 59 60 60 60 60 60 62 62 62 61 62 59 56 55 54 54 52 51 50 52 52 53 52 51 51 53 53 54 54 54 54 55 55 56 57 57 57
55 56 56 56 56 58 57 59 59 60 61 61 61 61 60 59 58 56 54 53 52 52 52 52 50 50 51 53 51 50 48 50 52 53 54 54 54 55 55 55 56 56 56
55 55 55 55 55 56 59 58 59 59 59 60 61 60 59 58 56 55 54 52 50 51 51 52 50 50 51 51 52 50 48 48 50 51 53 54 54 54 54 55 55 55 56
55 55 55 55 55 56 58 58 57 57 57 58 59 60 58 57 55 55 53 51 51 51 51 53 51 50 52 50 51 52 51 50 49 47 51 52 54 53 54 54 54 55 55
55 55 55 55 54 57 57 57 57 57 57 58 59 59 59 58 56 56 57 54 53 54 55 55 54 54 53 51 50 52 52 52 51 48 47 50 50 52 53 54 54 54 55
54 54 55 55 55 56 57 57 56 56 57 57 57 57 58 58 58 57 57 57 57 56 56 55 55 54 53 52 50 52 52 51 50 50 49 49 49 50 50 52 53 53 54

GFSSE_sfc_dewp_087.txt.gz
Dewpoint
66 69 71 69 70 72 72 72 73 72 72 73 73 73 72 72 72 73 72 72 72 72 71 71 72 72 71 71 71 71 71 71 70 70 70 70 69 69 69 70 69 66 69
66 69 70 70 71 72 72 72 73 72 72 73 73 72 72 72 72 72 72 72 72 72 71 71 72 72 71 71 71 71 71 70 69 69 70 69 69 69 69 69 68 67 69
68 70 69 69 70 72 72 72 73 73 73 73 73 72 72 72 72 72 72 72 72 72 72 72 72 71 71 71 71 70 70 69 69 69 69 66 66 68 68 69 69 69 69
69 70 69 69 69 71 72 72 71 73 73 73 73 72 72 72 72 72 72 71 71 71 72 71 71 71 71 70 70 70 69 69 69 68 65 65 65 68 68 68 68 68 68
68 69 69 68 69 70 71 72 71 71 72 72 72 72 72 72 72 72 71 71 70 71 71 71 71 71 70 69 69 69 69 68 67 65 64 65 65 67 68 67 67 67 67
68 68 69 68 69 70 71 72 70 70 71 71 71 72 72 72 72 70 69 70 71 71 71 70 70 70 69 69 68 68 67 66 65 62 63 65 64 66 65 65 66 66 66
68 69 69 69 69 70 71 71 71 70 70 71 71 71 71 71 70 69 68 68 69 69 69 69 69 69 68 68 68 67 66 66 62 62 63 63 63 64 63 63 63 64 64
68 69 68 69 69 69 70 70 70 70 70 70 71 70 69 69 68 69 68 67 68 69 69 69 69 68 68 67 66 65 65 64 63 62 62 62 64 64 63 63 63 63 62
69 68 68 69 70 69 69 69 69 69 69 69 68 68 68 68 67 68 67 67 67 68 68 68 68 67 67 66 65 64 63 64 62 61 61 61 65 63 63 62 62 61 61
69 68 68 69 70 70 70 68 68 68 68 67 67 67 66 67 67 67 67 67 67 68 68 68 67 66 66 65 64 63 62 62 60 59 60 62 64 63 62 61 60 60 59
68 68 68 69 70 70 70 68 68 67 67 66 66 65 64 66 66 66 66 66 66 67 67 67 66 65 65 64 63 62 60 59 58 57 58 64 63 62 60 59 60 58 60
64 66 67 68 69 70 68 67 68 68 67 66 66 65 67 66 66 65 65 65 66 66 66 66 65 64 63 61 60 60 58 58 57 57 57 62 62 61 60 60 59 58 58
65 65 66 67 68 68 67 67 66 66 66 66 64 64 65 65 64 64 65 65 65 65 64 65 64 62 62 61 59 59 58 58 57 56 57 61 61 61 60 58 57 57 58
64 66 65 66 66 66 67 67 66 64 64 64 65 63 64 64 63 62 64 65 64 64 64 64 62 62 61 60 59 59 58 57 57 56 56 61 61 61 60 58 60 60 59
62 64 65 65 65 65 65 66 65 65 64 64 64 63 63 63 62 63 64 64 64 62 62 63 60 60 60 59 59 58 58 57 57 55 55 60 60 60 59 60 60 60 59
60 62 66 64 65 64 64 64 64 65 65 64 64 63 63 63 63 64 65 63 63 61 62 61 59 59 58 58 58 57 57 57 57 57 56 57 59 60 61 60 60 59 59
59 62 64 64 64 64 63 64 63 63 64 63 62 63 63 63 63 64 63 63 62 60 59 59 59 58 57 56 57 57 56 57 57 57 57 56 57 59 60 61 60 58 58
58 60 63 63 62 64 64 63 63 62 63 62 62 62 63 63 63 63 62 62 62 60 58 57 56 56 56 55 55 55 55 56 57 57 57 57 56 55 58 59 60 59 59
57 59 61 63 61 62 63 63 62 62 62 62 62 61 62 62 63 63 62 62 60 58 58 56 56 56 55 55 54 55 55 55 56 55 57 57 57 56 55 58 58 58 58
58 60 61 62 61 63 63 62 62 61 61 61 61 61 62 62 63 62 62 60 60 59 56 55 56 56 56 55 52 54 55 55 56 56 56 56 57 57 57 56 56 55 58
59 59 59 60 60 61 62 61 61 60 60 60 61 62 61 62 62 62 60 59 59 59 56 56 56 56 55 55 54 54 55 56 56 55 56 56 56 56 57 56 56 54 55
57 58 59 59 59 59 60 61 61 61 61 61 61 61 61 61 62 61 59 58 58 59 57 55 56 55 55 55 53 52 51 53 54 55 55 55 56 55 56 56 56 56 56
56 58 57 58 58 59 59 59 60 61 61 61 60 61 61 61 62 60 59 59 59 57 55 55 56 55 53 55 55 52 52 50 52 53 55 55 55 55 55 56 56 57 57
56 57 57 57 57 58 59 57 58 57 57 59 60 60 59 60 60 58 59 58 56 56 56 55 54 54 56 54 55 53 55 54 51 52 53 54 55 55 56 55 55 56 56
56 55 56 57 56 56 58 58 58 57 58 59 60 59 57 57 57 57 57 55 54 55 56 55 54 56 57 55 53 54 53 54 54 52 50 51 53 54 54 55 55 55 56
55 55 55 55 56 56 57 58 58 58 58 58 58 57 56 56 57 55 54 54 54 55 56 56 56 56 57 56 55 55 53 51 50 52 51 52 53 53 54 55 56 55 55

GFSSE_sfc_dewp_090.txt.gz
Dewpoint
60 64 71 71 71 72 73 72 73 73 73 73 73 73 73 73 73 73 73 73 73 73 72 71 71 71 71 70 71 72 72 71 70 71 71 71 70 70 69 70 69 66 70
62 67 70 71 71 72 73 73 73 73 73 73 73 73 73 73 73 73 73 73 73 73 72 71 71 71 71 71 72 71 71 70 70 70 70 70 69 69 69 69 68 67 69
65 67 69 70 71 72 73 73 73 73 73 73 73 73 73 73 73 73 73 72 72 72 71 71 71 71 71 72 71 71 70 70 70 69 69 65 66 69 69 69 69 69 69
64 67 68 70 71 72 72 73 73 73 73 73 73 73 73 73 72 72 72 72 72 72 72 71 71 71 71 71 70 70 70 69 69 69 65 65 65 68 68 68 68 68 68
64 65 68 69 69 72 72 72 73 73 73 73 72 73 73 73 72 72 72 71 72 72 72 71 71 71 71 70 69 69 69 69 68 66 64 64 64 67 68 68 67 67 67
63 65 68 68 69 71 72 72 71 72 72 72 72 72 72 72 72 72 71 71 71 71 71 71 71 71 70 69 69 68 68 68 67 62 63 65 64 67 67 67 68 67 67
64 66 69 68 69 70 72 72 70 71 71 71 72 72 72 72 71 70 70 70 71 70 70 70 71 70 69 68 68 67 66 66 61 61 62 63 65 66 66 66 66 66 66
66 68 69 68 69 69 71 71 69 70 71 71 71 71 71 71 69 69 69 69 69 69 69 70 69 69 68 68 67 66 66 65 62 61 61 62 65 64 63 64 64 64 63
69 69 70 70 69 69 69 69 69 69 69 70 70 70 69 68 68 68 68 69 69 68 69 69 68 68 68 67 66 65 65 65 60 61 61 61 65 63 62 63 63 63 62
69 70 70 70 69 69 69 68 69 69 69 69 68 68 68 68 68 68 68 68 68 69 69 68 67 67 67 66 65 64 64 64 60 60 60 62 65 63 62 62 62 62 61
68 69 70 69 70 69 69 69 69 69 68 67 67 66 66 69 68 67 66 66 67 67 68 68 67 66 65 65 64 63 63 59 59 59 60 64 64 63 62 61 60 60 59
66 69 69 70 69 70 68 70 69 69 68 69 68 68 69 67 66 64 65 65 66 66 66 66 66 65 64 63 63 62 60 59 58 58 58 64 64 62 60 60 60 59 59
63 67 68 69 69 70 70 69 69 69 68 67 68 68 67 67 66 64 65 66 67 66 66 66 65 66 63 62 62 62 59 60 58 57 60 63 63 61 60 59 59 60 59
59 65 68 68 69 69 70 69 68 69 68 68 67 68 67 65 66 65 63 64 65 66 65 65 65 65 62 61 61 61 60 57 55 54 58 61 62 62 60 59 58 58 59
57 63 67 68 68 69 68 68 68 68 68 67 67 66 65 65 64 64 63 64 65 65 64 64 64 63 62 61 60 59 59 57 56 53 54 60 61 62 60 59 60 59 59
53 60 66 67 68 68 67 67 67 67 66 67 67 65 66 64 64 62 64 65 66 65 64 63 64 63 61 59 59 59 57 56 56 54 52 57 60 61 60 60 60 60 60
51 57 64 67 67 66 66 67 67 66 67 66 66 64 65 64 64 64 64 63 65 63 63 63 64 62 59 57 58 57 57 56 53 54 53 57 57 60 60 61 61 60 59
47 54 62 65 66 66 65 65 66 66 66 65 65 64 63 63 63 64 63 63 64 63 62 62 63 61 59 57 56 56 54 53 54 55 53 56 56 55 59 60 60 61 60
44 53 60 65 65 66 65 64 65 65 64 65 64 63 63 63 63 64 64 63 63 62 60 62 62 60 58 56 55 55 54 53 54 51 53 55 56 55 55 59 59 59 59
46 54 59 63 65 64 65 65 64 64 63 64 63 62 62 63 63 63 62 62 61 60 60 60 60 59 57 55 52 53 55 54 54 52 52 52 54 55 56 56 57 55 58
49 55 57 62 63 63 63 63 62 62 61 62 62 62 62 63 63 63 62 61 60 59 59 61 60 59 56 57 54 54 56 55 55 52 52 52 53 54 55 54 54 52 54
49 55 57 60 61 63 62 61 60 61 61 62 62 62 62 62 62 62 61 60 60 59 59 60 59 58 57 58 55 53 53 54 55 54 52 53 55 53 53 55 54 54 53
51 55 57 59 61 62 61 60 60 62 62 62 61 61 61 62 62 62 61 60 60 59 59 59 60 57 55 57 56 52 51 48 52 54 55 53 54 53 53 53 54 54 55
52 55 57 59 60 61 61 59 60 57 58 61 60 61 62 61 61 61 60 60 60 59 59 59 59 59 58 55 55 52 53 49 50 50 53 54 53 53 55 53 53 55 55
52 56 58 59 59 59 59 59 58 57 57 59 61 61 60 61 61 60 60 60 59 59 60 60 59 59 57 56 54 54 55 54 53 48 48 51 53 53 54 56 54 54 55
53 57 58 58 58 59 59 58 58 57 57 58 59 59 58 58 60 59 60 59 59 59 59 59 58 59 58 58 56 55 54 52 52 50 46 50 51 53 54 54 56 55 55

GFSSE_sfc_dewp_093.txt.gz
Dewpoint
53 66 71 73 73 73 73 73 73 73 73 73 73 73 73 73 73 73 73 73 73 73 73 72 72 71 71 70 71 72 72 71 71 71 71 71 70 69 69 70 69 67 70
57 66 71 72 72 73 73 73 73 73 73 73 73 73 73 73 73 73 73 73 73 73 72 72 71 71 71 71 72 71 71 71 71 70 70 70 69 69 69 69 69 68 69
60 66 69 71 72 73 73 73 73 73 73 73 73 73 73 73 73 73 73 73 73 73 72 71 71 71 71 71 71 71 71 70 70 70 70 64 66 69 69 69 69 69 69
59 65 67 71 72 73 73 73 73 73 73 73 73 73 73 73 73 73 73 73 73 72 72 71 71 71 72 71 71 71 70 70 69 69 66 64 65 69 69 69 69 69 68
56 62 68 70 71 72 72 73 73 73 73 73 73 73 73 73 73 73 72 72 72 72 72 71 71 71 71 70 70 70 69 69 68 67 64 65 66 68 68 68 68 68 68
56 59 69 69 70 72 72 73 73 73 72 72 72 72 73 73 73 72 71 72 72 72 71 71 71 71 70 69 69 69 69 68 68 65 64 66 65 67 68 68 68 68 67
58 62 69 68 70 71 72 72 71 72 72 72 72 72 71 72 71 70 71 71 71 71 71 71 71 70 69 69 69 68 68 66 64 65 64 66 66 68 67 67 67 67 66
60 64 69 69 69 70 71 71 70 71 71 71 71 72 72 71 69 70 71 70 70 70 69 70 70 69 69 68 68 67 66 66 63 64 64 64 66 67 67 66 66 66 65
64 67 69 69 69 69 69 70 69 69 71 71 70 70 70 70 69 70 69 69 68 70 70 69 69 68 68 67 67 66 65 65 62 62 63 62 66 65 65 65 64 64 64
67 68 69 69 69 69 70 69 69 69 69 70 70 68 68 68 68 68 68 69 68 69 69 69 68 68 67 66 66 65 64 64 63 61 62 62 65 63 63 64 63 62 62
67 68 70 69 69 68 68 69 69 69 69 69 69 68 67 68 68 68 67 67 67 67 66 67 67 66 66 65 64 64 64 60 61 61 62 65 65 63 62 62 62 61 61
66 67 69 70 69 68 65 69 68 68 68 69 68 68 69 68 68 64 66 66 66 66 67 67 66 65 65 64 65 63 60 62 60 62 61 65 65 62 62 61 60 59 60
62 64 68 69 70 69 66 66 66 67 66 67 68 67 66 66 68 69 66 65 66 66 67 66 65 66 65 65 64 62 61 61 59 60 62 64 64 62 61 61 60 59 60
56 61 69 69 68 70 67 66 65 64 67 67 68 70 68 67 69 67 64 64 64 65 66 65 65 65 64 63 64 61 61 60 57 59 61 63 63 62 61 60 60 59 59
47 58 66 68 68 68 70 68 68 67 65 67 68 68 67 66 67 65 64 62 66 66 64 64 64 64 64 63 63 61 60 59 58 57 58 62 62 63 61 59 59 60 58
40 51 66 67 68 67 68 69 68 68 68 67 66 68 68 67 66 64 63 63 63 64 64 64 64 63 63 62 62 60 59 57 54 53 55 58 61 62 61 60 59 60 60
38 43 63 68 68 68 68 68 68 66 67 66 66 68 67 66 66 64 64 64 65 64 65 64 63 63 63 62 59 58 55 54 53 52 54 56 59 60 60 61 62 60 60
35 43 53 62 68 68 67 67 67 66 67 67 67 67 67 66 65 64 64 65 65 64 64 63 62 62 61 60 57 56 53 53 53 53 54 55 56 55 59 61 62 62 61
32 40 51 62 67 67 66 67 67 67 67 67 66 66 66 66 64 64 65 64 64 63 63 63 62 61 60 59 56 55 54 50 52 50 54 55 56 56 56 60 60 60 60
31 41 49 59 67 66 66 66 66 65 66 66 66 66 65 65 64 64 64 63 64 62 62 62 61 61 60 57 52 53 53 51 51 51 52 54 55 57 57 57 58 57 59
35 40 50 57 66 66 64 64 64 64 63 64 64 64 64 64 63 63 62 63 63 61 61 61 61 60 59 58 55 56 58 58 55 50 51 51 52 55 55 56 55 54 56
37 41 51 55 61 64 63 63 63 63 62 63 64 63 64 63 63 62 62 62 61 60 60 60 60 59 59 58 54 53 53 55 55 52 50 51 55 51 52 54 54 53 53
39 45 49 53 59 64 64 63 62 62 62 62 62 63 63 63 63 63 62 62 60 60 60 60 60 59 58 58 57 52 51 49 53 53 54 50 55 52 52 52 53 52 54
39 48 51 53 59 62 63 60 61 60 59 60 61 62 62 62 62 62 62 61 60 60 60 60 60 59 58 56 57 54 54 50 50 51 53 52 51 52 55 52 53 53 53
38 47 53 54 57 61 62 60 61 60 59 59 61 62 62 62 61 62 61 61 60 60 60 60 60 60 59 57 55 55 55 52 54 50 49 51 51 51 52 55 53 54 55
35 51 55 56 57 59 60 60 60 60 58 55 60 61 61 61 61 61 61 60 60 60 60 60 60 59 59 59 57 56 54 52 50 50 48 51 51 51 52 54 57 55 55

GFSSE_sfc_dewp_096.txt.gz
Dewpoint
63 69 72 72 73 73 73 73 72 73 73 73 74 74 74 74 74 74 74 73 74 74 73 72 72 72 71 71 72 72 72 71 71 72 72 72 70 70 70 70 69 68 70
65 69 72 72 73 73 73 73 73 73 73 73 73 73 73 73 74 74 73 73 73 74 72 72 72 71 71 72 72 72 71 71 71 71 71 71 70 69 69 70 70 69 70
64 69 71 72 72 73 73 73 73 73 73 73 73 73 73 74 73 73 73 73 73 73 72 72 71 71 72 72 71 71 71 70 70 69 69 66 67 70 70 70 70 70 69
64 67 69 71 72 72 73 73 73 73 73 73 73 73 73 73 73 73 73 73 73 73 72 72 71 71 72 71 71 70 70 70 69 69 67 66 66 69 69 69 69 69 69
63 64 68 70 71 72 73 73 73 73 73 73 73 73 73 73 73 73 72 73 72 72 72 72 72 72 71 70 70 70 69 69 68 66 66 67 66 68 69 68 68 68 68
61 63 69 70 71 72 72 73 73 73 72 72 72 73 73 72 73 72 72 72 72 71 72 72 72 71 70 69 69 69 68 67 67 65 65 66 65 68 68 68 68 68 67
62 70 69 69 70 72 72 73 72 72 72 72 72 72 72 72 72 71 70 71 71 71 71 71 71 70 70 69 69 68 67 67 65 65 65 66 66 68 68 68 68 67 67
69 70 69 69 70 71 72 71 71 71 71 72 72 72 72 72 70 70 70 70 71 70 70 70 70 70 69 69 68 67 67 65 65 65 65 66 67 67 67 67 67 66 66
69 70 69 69 70 70 70 70 69 70 70 71 71 71 71 70 69 70 70 69 69 69 69 70 69 69 69 68 67 67 65 65 64 65 63 65 67 67 67 66 65 65 65
70 71 70 70 69 69 70 69 68 69 70 70 71 70 70 69 69 69 69 68 68 68 68 69 68 68 67 67 67 65 65 65 65 62 63 63 66 66 66 65 64 64 64
69 70 71 70 69 69 69 69 69 69 69 70 70 69 68 70 69 69 68 67 67 67 67 67 67 67 65 65 66 65 65 62 64 63 63 65 65 64 64 63 64 62 60
67 69 70 70 69 70 67 69 69 69 69 70 70 70 70 69 68 66 67 66 66 66 66 67 67 66 65 65 64 63 64 64 61 62 62 65 65 63 62 61 61 61 59
65 67 70 70 70 70 67 69 68 68 68 69 69 69 70 68 68 68 66 66 66 66 66 66 66 66 65 65 64 62 63 61 62 61 63 65 64 63 61 60 59 59 60
62 66 68 69 70 70 69 68 67 67 67 68 68 69 68 67 68 67 65 65 65 65 65 65 65 65 64 65 63 63 61 60 61 61 63 64 64 63 61 60 60 61 60
47 63 68 68 69 69 70 68 68 67 67 68 68 69 68 67 67 66 65 64 63 64 64 64 63 63 64 63 63 62 61 61 60 60 62 63 62 62 61 60 59 59 59
41 52 69 68 69 69 68 69 68 69 68 68 68 68 68 68 67 66 65 63 63 64 65 64 63 62 63 63 63 62 60 61 60 59 60 61 62 62 61 59 60 58 59
37 46 68 68 68 68 68 69 68 68 68 68 67 68 67 67 67 65 64 64 64 64 64 63 63 63 63 63 62 60 61 60 57 57 57 59 60 60 61 61 61 61 59
33 40 65 68 68 68 68 68 66 68 67 67 67 68 67 67 66 65 64 64 64 64 64 63 63 62 62 61 60 61 60 54 54 55 56 57 58 58 60 60 61 61 61
31 41 53 67 68 67 68 67 66 67 67 66 66 66 67 67 65 65 64 64 64 64 63 63 62 62 61 61 60 61 56 54 54 53 55 56 57 56 57 60 60 61 61
32 38 52 67 68 67 67 66 66 65 65 66 66 66 65 66 65 65 64 64 64 63 63 62 61 61 61 60 61 59 53 54 53 55 54 55 56 56 57 58 59 59 59
43 45 51 62 68 67 66 65 65 64 64 65 66 66 65 65 64 64 63 63 63 62 62 62 61 60 60 61 59 56 57 54 52 53 55 55 55 55 57 57 58 57 58
42 45 51 58 67 66 65 65 64 63 64 64 64 64 64 64 64 63 63 62 62 62 61 61 60 59 60 60 57 52 52 53 55 52 54 55 54 55 54 56 56 55 56
45 49 50 54 66 66 65 64 63 63 64 64 63 63 63 64 63 63 63 62 62 61 61 61 60 59 58 59 59 51 51 49 52 53 53 52 55 55 54 54 55 54 55
45 50 49 52 56 66 64 63 63 62 61 61 61 62 62 63 63 63 62 62 62 61 61 60 61 59 59 57 58 53 52 52 49 50 53 53 55 53 55 54 54 54 53
41 52 53 53 54 64 64 63 63 61 61 61 61 61 61 62 62 62 62 62 61 61 61 60 60 59 59 58 56 54 52 54 52 50 49 51 53 53 53 55 54 54 54
42 50 54 54 56 63 63 63 63 61 60 59 60 61 61 61 61 61 62 61 61 60 60 60 60 60 59 58 56 54 51 52 51 51 50 49 50 51 52 54 54 55 54

GFSSE_sfc_dewp_099.txt.gz
Dewpoint
68 70 72 73 73 72 72 72 72 73 73 74 73 73 73 73 73 73 74 74 74 74 73 72 73 72 73 72 72 72 72 71 71 71 72 72 71 70 71 71 70 68 71
68 70 71 72 73 73 73 72 72 73 73 74 73 73 73 73 73 73 74 74 74 74 72 72 72 72 72 72 72 72 71 70 70 70 71 71 70 70 70 71 70 69 70
68 70 71 72 72 73 73 73 73 73 73 74 73 73 73 73 73 73 73 73 73 74 72 72 72 72 71 72 71 71 71 70 70 69 70 67 68 70 70 70 70 70 70
69 70 70 71 72 72 73 72 73 73 73 73 73 73 73 73 73 73 73 73 73 73 72 72 72 71 71 71 71 70 70 69 69 69 67 67 68 70 70 70 70 70 69
67 69 70 71 71 72 72 73 72 73 73 73 73 73 74 73 73 73 72 72 73 73 72 72 72 71 71 70 70 70 69 69 68 67 66 67 67 68 69 69 69 69 68
64 68 69 70 71 72 72 72 73 72 72 72 72 73 73 73 73 73 72 72 73 72 72 72 72 71 70 69 69 69 68 68 67 66 66 67 66 68 68 69 68 68 66
65 68 69 69 70 71 72 72 72 72 72 72 72 72 72 73 72 72 72 72 72 72 72 71 71 70 69 69 69 68 67 67 65 66 65 66 66 68 68 68 68 67 67
68 68 69 70 70 71 71 71 71 71 71 70 72 72 72 72 71 71 71 70 71 71 71 70 70 70 69 69 68 67 66 66 65 66 66 66 67 68 68 67 67 67 66
69 68 68 69 70 70 70 70 70 70 70 69 70 71 71 70 70 70 70 70 70 70 69 70 70 69 69 68 67 66 65 66 65 66 65 66 67 68 67 66 65 65 64
69 68 67 68 68 68 69 68 69 69 68 69 70 70 70 69 69 69 69 69 68 69 70 69 68 68 67 66 65 65 64 65 65 64 65 65 67 67 66 65 65 64 63
68 68 68 68 68 68 68 68 68 69 68 69 70 69 68 69 68 68 68 68 68 68 67 67 67 67 66 65 65 64 64 63 64 64 64 66 66 66 66 65 65 63 63
67 68 68 68 68 68 68 68 67 68 68 69 70 69 68 68 68 68 67 66 66 66 66 66 66 66 66 65 64 64 63 63 63 63 63 65 66 66 65 63 63 61 59
66 69 68 68 68 68 67 68 68 68 68 68 68 69 68 68 67 66 65 66 65 66 65 64 64 65 65 65 65 63 63 63 63 63 63 64 65 64 63 62 61 59 59
65 68 68 68 68 68 68 67 67 68 68 68 68 68 68 66 66 65 65 64 65 65 64 63 64 65 65 65 64 63 62 63 61 61 63 63 64 63 61 61 59 60 59
60 66 68 67 68 68 67 68 67 67 67 67 67 67 67 66 65 65 64 64 64 64 63 62 63 63 63 63 63 63 61 62 62 61 62 63 63 63 61 60 61 61 60
37 64 67 67 67 67 67 66 66 67 66 67 67 67 66 66 66 65 64 63 63 63 63 63 62 62 63 63 63 63 62 62 61 61 62 61 62 62 62 61 61 60 59
33 46 66 67 68 68 67 67 66 67 66 67 67 67 66 66 66 65 64 63 63 63 63 63 63 62 62 63 62 63 62 62 61 60 60 60 60 60 61 62 61 60 59
32 38 66 67 67 68 67 67 67 66 66 66 67 67 66 66 65 64 64 63 64 63 63 63 62 61 61 61 61 61 61 62 60 59 59 59 59 58 59 60 61 59 60
30 33 63 67 67 67 67 67 66 66 65 65 65 66 66 65 65 64 63 64 64 64 63 63 62 61 60 61 61 61 61 60 58 57 58 59 58 58 58 60 60 60 60
31 31 57 67 67 67 67 66 65 65 67 65 64 65 65 65 64 63 63 63 63 63 62 62 62 62 61 61 61 60 61 59 56 56 57 57 57 57 58 59 59 59 59
31 31 56 66 66 66 66 65 64 64 65 65 65 64 65 66 65 64 64 63 63 62 61 62 61 61 60 61 59 58 58 57 54 55 56 56 56 56 57 58 59 58 59
33 37 57 66 66 66 66 65 64 65 65 64 65 65 64 65 64 64 63 63 63 62 62 61 61 60 60 60 57 56 54 54 53 54 55 55 55 55 57 58 58 57 57
36 37 60 66 66 65 65 64 63 63 64 64 64 64 64 64 63 63 63 63 63 62 61 61 60 59 58 59 59 55 51 49 51 53 54 54 54 55 56 57 57 56 56
36 39 59 66 65 65 64 64 62 62 61 62 63 63 63 64 63 63 63 62 62 62 61 61 61 60 59 57 59 58 53 51 48 50 54 54 54 54 54 56 56 55 55
38 42 54 65 65 64 64 63 62 62 61 62 62 62 62 62 63 62 62 62 62 62 61 61 61 60 59 58 58 56 52 52 51 48 49 51 54 55 54 54 56 55 54
48 42 46 61 64 64 63 62 62 61 61 60 60 60 61 61 62 62 62 62 62 61 61 61 61 59 59 59 59 57 53 50 50 49 49 50 50 52 53 54 54 54 54

GFSSE_sfc_dewp_102.txt.gz
Dewpoint
68 71 72 72 73 73 72 72 72 72 73 73 73 73 73 73 73 74 74 74 74 74 73 72 73 73 73 72 72 72 71 70 71 71 71 71 71 71 71 71 70 69 71
68 71 71 72 72 73 72 72 72 72 73 73 73 73 73 73 73 74 74 74 73 73 72 72 72 72 72 72 72 71 71 71 70 71 71 71 70 70 70 70 70 70 71
69 71 71 71 72 72 73 72 73 73 73 73 73 73 73 73 73 74 74 73 73 73 72 72 72 72 72 72 72 71 71 70 70 70 70 68 68 69 70 70 70 70 70
69 70 71 72 72 72 72 72 73 73 73 73 73 73 73 73 73 73 73 73 73 73 72 72 71 71 71 71 71 70 70 70 69 69 68 68 67 69 70 69 69 70 70
68 70 71 71 72 72 72 72 72 73 73 73 73 73 73 73 73 73 73 73 73 73 72 71 70 71 71 70 70 70 70 69 68 67 66 67 67 68 69 69 69 69 69
68 69 70 70 71 72 72 72 72 72 72 72 72 73 73 73 73 73 72 73 73 73 72 72 71 71 70 69 69 69 68 68 67 66 67 68 67 68 69 68 69 68 68
67 69 70 69 70 71 72 72 72 72 71 72 72 72 73 73 73 72 72 72 72 72 72 72 71 70 69 69 68 68 67 67 66 65 66 66 67 68 68 67 67 67 66
67 68 69 70 70 71 71 71 71 71 71 71 71 72 72 72 72 71 71 71 71 71 71 71 70 69 69 68 68 67 66 66 66 65 66 66 67 68 68 67 66 66 65
67 67 68 69 70 70 69 70 70 70 70 70 71 71 71 71 70 71 71 70 71 70 70 70 69 69 69 68 67 66 65 66 65 66 65 66 68 68 68 66 66 65 63
67 67 68 68 69 69 69 69 69 70 69 69 70 70 69 69 69 70 69 70 69 69 70 69 68 68 68 67 66 65 65 66 65 65 66 65 67 68 67 66 65 64 63
67 67 67 67 68 68 68 69 69 70 69 68 69 69 69 70 69 69 68 68 68 68 67 68 67 67 66 66 65 64 63 64 64 65 65 66 67 67 66 65 64 63 62
66 66 67 67 67 67 69 67 67 68 68 68 67 67 69 68 68 68 68 67 67 67 67 66 66 66 65 65 65 65 64 63 63 63 65 66 67 66 65 65 64 62 61
66 67 67 67 67 67 67 68 67 68 67 67 67 68 68 68 67 67 66 66 66 65 65 65 64 63 64 64 64 64 63 63 62 63 65 65 67 66 65 63 62 61 61
67 67 67 67 67 67 67 67 66 67 67 67 66 68 68 67 65 65 65 64 65 64 63 62 62 62 63 64 63 63 63 64 63 63 64 64 65 66 64 63 62 60 60
65 67 67 67 67 67 67 67 67 67 67 67 67 67 68 67 65 64 64 64 64 64 63 62 62 62 62 64 64 63 63 63 63 63 63 63 64 65 63 62 61 60 60
63 66 67 67 67 67 67 67 66 67 67 67 67 68 68 67 65 64 64 64 64 63 62 62 62 61 61 63 63 63 62 63 63 63 62 62 62 62 63 61 59 60 60
45 65 67 67 68 67 67 67 66 66 67 67 67 67 67 66 65 64 63 63 63 63 62 61 61 62 62 62 63 63 63 62 62 62 61 61 61 61 61 61 62 61 60
29 55 67 67 67 67 67 67 66 66 66 66 67 67 66 66 65 64 63 63 63 63 63 62 62 61 61 62 61 62 62 63 62 62 61 60 60 59 60 60 61 61 61
29 40 65 67 67 67 67 67 66 66 66 66 66 67 65 65 65 64 63 63 63 63 63 62 62 61 60 61 61 61 62 62 62 62 60 59 59 58 58 60 60 59 60
27 33 60 65 67 67 67 67 65 65 65 66 66 66 65 65 64 64 63 63 63 63 63 62 61 61 60 60 61 61 61 60 61 61 60 59 58 57 57 58 58 56 58
30 31 51 64 66 67 67 66 65 65 65 65 65 65 65 64 64 63 63 63 63 63 62 62 61 61 60 61 60 59 59 59 60 59 59 58 57 57 57 58 58 58 57
29 32 47 62 66 67 66 66 65 65 64 65 65 65 66 65 64 64 63 63 63 63 62 62 61 60 60 61 58 57 54 56 56 59 57 57 56 56 57 57 58 58 57
28 32 46 59 65 66 66 66 64 64 63 62 64 65 65 65 65 64 64 63 63 63 61 61 61 60 59 60 59 56 53 52 54 56 56 56 56 56 56 57 58 58 57
40 34 44 56 64 65 66 65 64 63 62 63 63 64 64 64 64 64 63 63 63 63 62 61 61 60 59 58 58 59 57 53 52 51 55 55 55 55 55 56 57 57 57
51 51 60 61 64 65 65 64 63 63 62 61 62 63 63 64 63 63 63 63 63 63 62 61 61 60 60 58 58 57 57 52 51 52 51 53 54 54 55 56 57 56 56
52 55 56 65 65 65 64 64 63 62 61 61 62 62 62 63 63 63 62 62 62 62 62 61 61 60 60 59 59 57 56 51 51 50 49 52 52 53 54 54 56 56 56

GFSSE_sfc_dewp_105.txt.gz
Dewpoint
67 70 72 73 73 72 72 72 71 72 72 73 73 73 73 73 73 73 73 73 73 73 72 72 73 73 72 72 73 71 71 71 71 71 71 71 71 71 71 71 70 69 71
68 71 71 72 73 72 72 72 72 72 72 73 73 73 73 73 73 73 73 73 73 73 71 72 73 72 71 71 71 71 71 71 71 71 71 71 70 70 70 70 70 69 70
69 71 71 72 72 72 72 72 72 72 72 73 73 73 73 73 73 73 73 73 73 73 72 71 72 72 71 71 71 71 71 71 70 70 71 67 67 69 70 70 70 70 70
69 70 71 71 72 72 72 72 72 73 73 72 73 73 73 73 73 73 73 73 73 73 72 72 72 72 71 71 71 71 71 70 70 70 68 66 66 69 70 69 69 70 70
69 70 70 71 71 72 72 72 72 72 72 72 72 73 73 73 74 73 73 73 73 73 72 71 71 71 71 70 70 70 70 69 69 68 67 67 67 68 69 69 69 69 69
69 70 70 70 71 71 72 72 72 72 71 71 72 73 73 73 73 73 72 73 73 73 71 71 71 71 70 69 69 69 69 68 67 66 66 68 65 68 69 69 69 69 69
68 69 70 69 70 71 72 72 72 71 71 71 72 72 73 73 73 72 71 72 72 72 72 71 71 70 69 69 69 68 68 67 66 65 65 66 66 68 68 68 68 68 67
67 69 69 70 70 71 71 71 71 71 71 71 71 72 72 72 72 71 71 71 71 71 71 71 70 69 69 68 68 67 66 66 65 65 65 66 68 68 68 67 67 67 66
67 68 69 70 70 70 69 69 69 70 70 70 71 71 71 71 70 71 71 71 71 71 70 70 69 69 69 68 67 66 66 66 64 65 65 66 68 68 68 66 66 65 64
66 67 68 69 70 70 69 69 69 69 69 70 70 70 69 70 70 70 70 70 70 69 69 69 69 68 68 67 66 66 65 66 64 64 64 65 68 68 67 66 65 64 63
65 65 67 68 68 68 69 69 69 70 69 69 70 69 68 70 69 69 69 69 68 68 69 68 68 67 67 66 66 65 65 65 64 64 64 66 68 67 67 65 64 64 63
64 64 66 67 67 67 68 69 69 69 69 68 69 69 70 68 68 68 68 67 67 67 67 67 67 66 66 65 64 65 65 64 64 64 64 66 67 67 66 65 64 63 62
64 64 66 66 67 67 67 68 68 68 67 67 67 67 69 68 68 68 66 66 66 67 65 65 65 64 63 64 64 64 64 64 64 64 64 65 66 67 65 64 64 63 62
65 65 66 66 66 67 67 67 68 68 66 66 66 66 68 68 67 66 66 65 65 64 63 63 62 62 63 63 64 63 63 63 63 64 63 64 65 67 66 64 63 62 62
63 65 65 66 66 66 66 66 66 66 66 65 65 67 68 68 67 66 65 65 64 63 63 62 62 61 62 62 62 63 63 63 63 64 63 63 64 66 66 64 63 62 61
58 64 66 66 65 66 66 66 65 65 65 65 66 66 68 68 66 66 64 64 64 63 62 62 61 61 61 62 62 62 62 63 63 63 64 63 63 64 65 64 63 61 60
45 61 66 66 66 66 66 66 66 66 65 65 65 67 67 67 65 64 64 64 64 63 62 61 60 61 61 61 61 62 62 63 63 63 63 63 62 61 62 63 63 61 60
32 51 64 67 67 66 66 66 66 66 66 66 66 66 67 67 65 64 63 64 64 63 61 61 60 60 61 61 61 62 62 62 62 63 63 63 61 60 60 61 62 62 62
27 32 55 66 67 67 66 66 66 66 66 66 66 66 67 66 65 64 63 64 63 63 62 61 61 61 60 61 61 61 62 62 62 63 62 62 61 60 59 60 60 61 61
27 29 37 62 66 67 67 66 66 65 66 66 66 66 65 66 64 64 63 63 63 62 62 62 61 61 60 60 61 60 61 61 62 62 61 61 60 59 58 58 59 59 59
27 29 38 56 66 66 66 66 65 64 65 65 66 66 65 65 64 64 63 63 63 62 62 62 61 61 60 60 59 59 60 61 61 61 61 61 60 58 57 58 57 54 57
22 31 38 54 63 66 66 66 65 65 65 65 65 65 65 65 64 64 64 63 63 62 62 62 61 60 60 60 58 57 55 55 59 60 61 60 59 58 57 57 57 56 54
27 26 37 51 60 65 66 66 63 62 63 64 64 65 65 65 64 64 64 63 63 63 62 62 61 60 59 61 60 57 53 52 55 58 58 59 59 57 56 56 57 57 57
51 52 42 45 59 64 65 65 63 63 62 63 64 64 65 65 64 64 63 63 63 63 62 62 62 61 60 58 60 59 57 55 53 52 56 57 57 56 56 56 57 57 57
50 53 54 45 56 62 65 64 64 62 62 62 63 63 64 64 64 64 63 63 63 63 62 62 61 61 61 59 59 58 57 57 56 53 52 54 55 55 55 56 56 57 57
47 48 54 58 59 63 65 64 63 62 62 62 62 63 63 63 64 64 63 63 63 62 62 62 62 61 61 60 60 58 57 54 53 53 52 53 53 54 55 55 56 56 57

GFSSE_sfc_dewp_111.txt.gz
Dewpoint
64 70 72 73 72 72 72 72 72 73 73 73 73 73 73 73 73 73 74 74 74 73 73 72 73 74 73 73 73 73 72 72 72 72 71 72 71 71 71 71 71 68 71
66 70 72 72 72 72 72 72 72 73 74 74 73 73 73 73 73 73 73 74 73 74 72 72 73 73 73 72 72 72 72 72 72 71 71 71 71 70 71 71 70 69 71
68 70 72 72 72 72 72 72 72 73 74 74 73 73 73 73 73 73 73 73 73 73 73 72 72 72 73 72 72 72 71 71 71 71 71 67 68 70 70 71 71 71 70
68 70 71 72 72 72 72 72 72 73 74 73 73 73 73 73 73 73 73 73 73 73 73 72 71 72 72 72 71 71 71 71 70 70 67 67 67 70 70 70 70 70 70
68 69 70 71 71 72 72 72 72 72 73 73 73 73 73 73 73 73 72 72 73 73 73 72 72 72 71 71 71 71 71 70 68 67 67 68 68 68 70 70 70 69 69
68 69 70 70 71 72 72 72 72 72 72 72 72 73 73 73 73 73 72 72 73 73 73 72 72 71 70 70 70 70 69 69 68 66 66 68 67 69 69 70 69 69 69
68 70 70 69 71 71 72 72 72 71 71 71 72 72 73 73 73 72 72 72 72 72 71 72 72 70 70 70 70 69 68 68 67 66 67 67 68 69 69 68 69 69 69
69 70 71 70 70 71 71 71 70 70 70 71 72 72 73 72 72 72 72 72 72 71 70 70 70 70 70 69 69 68 67 67 66 66 66 67 68 69 68 68 68 68 68
70 70 71 70 70 70 70 70 69 69 70 70 71 71 72 71 71 71 71 71 71 70 70 70 70 69 69 69 68 67 66 67 67 66 65 65 69 69 68 68 68 67 67
68 70 70 70 70 71 72 68 69 69 69 70 70 70 70 70 70 70 70 70 71 70 70 70 69 69 68 68 67 66 66 66 67 66 67 66 68 68 68 68 68 67 66
66 67 68 68 69 70 71 70 69 69 69 69 70 69 68 71 71 71 70 69 70 69 69 69 68 68 67 67 66 66 66 65 67 66 67 67 68 68 68 67 67 66 65
65 65 66 67 68 69 69 70 71 70 70 70 70 70 71 71 71 70 69 68 68 68 68 68 67 67 66 66 66 66 66 67 67 67 65 66 67 68 67 66 66 65 64
63 65 66 66 67 68 68 68 68 69 69 69 70 70 70 70 71 71 70 70 70 68 69 68 68 68 67 66 67 67 67 67 66 66 66 65 67 68 68 66 65 64 64
64 63 66 67 66 67 67 67 67 67 68 68 68 69 69 68 69 70 69 70 69 70 69 69 69 68 68 67 66 66 67 66 66 67 66 64 66 68 67 66 65 64 63
61 65 65 66 66 66 66 66 66 66 66 67 68 68 68 67 67 68 68 68 68 68 68 68 68 68 67 66 66 66 66 66 66 66 66 64 64 66 67 67 65 64 63
41 56 66 66 66 66 65 66 66 66 66 67 68 69 68 68 67 67 67 68 68 68 68 67 67 66 66 66 66 66 65 65 65 66 66 65 63 64 66 66 66 64 63
35 38 58 67 67 66 66 67 66 66 66 66 67 69 69 69 68 67 67 66 67 68 67 67 66 66 66 66 65 65 65 65 65 64 64 64 63 62 63 66 65 65 63
31 35 41 57 66 67 67 67 67 67 67 67 67 67 69 69 68 68 66 66 67 66 66 66 65 65 65 65 64 65 64 64 64 64 63 63 63 64 63 63 64 64 64
26 35 39 46 61 66 67 67 67 67 67 67 66 66 67 68 67 67 66 66 66 66 65 65 65 64 64 64 63 63 64 64 63 63 63 63 63 63 63 63 63 62 63
28 35 38 41 50 64 66 67 67 67 66 66 66 65 65 66 65 66 66 66 66 64 64 64 64 64 64 63 62 63 64 63 64 64 63 63 63 63 64 63 63 62 61
37 36 34 37 45 55 62 64 64 63 64 65 65 65 65 65 65 66 66 65 65 64 63 63 63 63 62 63 61 61 62 63 62 63 63 63 63 63 63 62 63 61 59
49 50 51 49 39 42 57 62 63 63 64 65 65 65 65 65 65 65 65 64 64 64 63 63 62 62 62 62 60 59 57 59 62 62 63 62 63 62 62 61 62 61 59
46 47 48 49 52 51 44 58 64 65 66 64 64 65 64 65 65 65 64 64 64 64 63 63 63 62 60 61 62 59 56 55 57 60 61 61 61 62 62 61 61 61 60
43 44 45 47 48 51 53 51 62 61 60 61 63 64 65 65 65 64 64 64 64 63 63 63 63 63 62 60 61 61 61 58 56 54 58 60 61 61 60 60 60 59 59
39 41 42 44 47 50 54 54 62 62 62 62 64 65 64 64 64 64 64 64 63 64 64 63 63 63 63 61 60 60 60 60 58 55 54 57 59 60 61 60 59 59 57
36 38 40 42 44 50 55 55 62 63 62 62 63 64 64 64 64 64 64 64 64 63 64 63 63 63 62 62 61 61 59 58 56 56 55 55 56 57 59 59 59 59 58

GFSSE_sfc_dewp_114.txt.gz
Dewpoint
61 69 72 72 73 72 73 73 73 73 73 73 73 73 73 73 73 74 74 74 74 74 74 73 73 73 72 72 73 73 73 73 72 72 72 72 71 71 71 71 70 67 71
61 70 71 72 72 73 73 73 73 73 73 73 73 73 73 73 73 74 74 74 73 74 73 73 73 73 72 73 73 72 73 72 71 71 71 71 71 71 70 70 70 69 71
64 70 71 71 72 72 73 73 74 74 74 73 73 73 73 73 73 73 73 73 73 74 73 72 73 72 72 73 72 72 72 71 71 71 71 66 68 70 70 71 71 71 71
65 68 69 71 72 72 72 73 73 74 74 73 73 73 73 73 73 73 73 73 73 73 73 71 72 73 72 72 72 72 71 71 71 70 68 65 66 70 70 70 70 70 70
65 67 69 71 71 72 72 72 73 73 73 73 73 73 73 73 73 73 73 73 73 74 73 72 72 72 71 71 71 71 71 70 70 68 65 66 66 69 70 70 70 70 69
65 66 70 70 71 71 72 72 73 73 72 73 73 73 73 73 73 73 72 73 73 73 73 73 72 71 71 70 70 70 70 69 68 63 65 67 65 69 70 70 69 70 70
66 67 71 69 71 71 72 72 72 72 72 72 73 73 73 73 73 72 72 72 73 73 73 73 72 71 70 70 70 70 69 68 65 63 64 66 67 70 69 69 69 70 70
67 69 71 70 71 71 71 71 70 71 71 71 72 72 73 73 72 72 72 72 72 72 72 72 71 70 70 70 69 68 68 67 64 64 65 65 69 69 69 69 69 69 69
69 70 71 71 71 70 70 69 69 70 70 71 71 71 72 71 71 71 71 72 71 70 70 71 70 70 70 69 68 67 67 67 62 63 64 64 69 69 68 68 68 69 69
70 71 71 71 71 70 71 69 69 69 69 70 70 71 70 70 70 71 71 71 71 70 70 70 69 69 69 68 68 67 66 67 64 61 63 63 69 69 68 68 68 68 68
68 69 70 70 70 70 70 70 69 69 69 69 70 70 69 70 71 71 69 70 70 69 69 69 69 68 68 67 67 66 66 63 62 61 62 67 68 68 68 68 68 67 67
66 68 69 69 69 70 67 70 70 69 68 69 69 70 69 69 69 68 68 68 68 68 68 68 68 67 67 65 66 66 65 61 61 61 63 67 68 68 68 67 68 66 66
59 66 68 68 69 70 69 69 68 68 67 68 70 69 69 68 69 68 69 70 71 69 68 67 68 66 65 63 63 64 63 63 61 61 63 66 68 68 68 67 66 66 65
51 62 66 68 68 70 69 67 68 68 69 69 69 70 68 69 69 68 67 67 68 69 67 67 66 66 65 64 64 64 64 63 60 62 66 65 66 68 68 67 66 66 65
39 52 64 66 67 68 69 67 67 68 66 69 69 69 69 69 69 68 66 66 66 67 68 66 66 66 66 65 64 64 64 63 62 62 64 65 65 66 68 67 66 65 64
30 36 47 62 67 66 67 68 68 68 66 68 68 68 69 68 68 67 67 66 66 66 67 67 66 66 65 65 64 64 64 63 63 63 61 65 64 64 66 67 67 66 65
28 31 41 51 62 67 67 66 67 66 66 66 67 70 69 69 68 68 67 66 65 67 67 68 67 65 65 65 64 64 64 64 63 63 62 61 63 62 64 65 66 66 65
25 30 35 40 51 63 66 66 64 64 65 64 66 67 70 69 69 68 67 67 67 68 68 66 66 65 65 64 64 64 63 64 63 63 62 61 60 61 62 63 63 65 64
25 31 34 40 44 58 64 66 66 66 65 64 64 65 67 69 70 68 67 67 69 68 68 66 65 66 64 64 63 63 64 63 63 62 62 62 62 61 62 62 62 62 64
41 44 44 40 42 46 58 63 62 64 65 64 64 64 66 68 68 68 65 68 68 67 66 67 66 65 64 64 62 62 63 63 64 62 62 61 63 64 63 63 64 63 62
46 47 48 50 52 43 41 54 57 62 63 64 64 65 65 67 68 67 65 66 67 66 66 67 66 66 66 65 64 64 63 63 63 61 61 61 62 62 63 64 64 64 63
44 46 48 48 49 50 45 41 55 58 61 62 64 66 66 66 66 67 66 66 66 66 65 66 65 64 64 65 62 61 59 60 62 62 62 61 63 64 63 63 63 63 63
42 44 44 46 47 48 51 50 43 56 58 60 64 66 66 65 66 68 66 66 66 66 64 64 65 64 62 63 64 59 58 54 55 59 61 61 63 64 62 63 62 62 63
38 41 42 44 45 46 49 50 51 46 53 58 61 64 65 67 66 66 67 66 66 66 64 64 64 64 64 61 63 62 60 57 55 54 59 61 62 62 62 62 62 62 62
37 38 40 42 43 45 48 50 52 50 55 56 61 62 64 66 66 66 66 66 65 65 65 64 64 64 64 62 61 61 61 60 59 57 54 56 59 61 62 62 62 62 61
35 36 37 39 40 42 45 49 52 55 53 55 57 61 62 65 65 65 65 65 65 65 64 64 64 64 64 63 62 61 60 59 59 58 57 56 56 57 61 62 61 61 61

GFSSE_sfc_dewp_120.txt.gz
Dewpoint
66 69 72 73 73 74 74 74 73 73 73 73 73 74 74 74 73 74 74 74 74 74 75 74 74 73 71 71 72 73 73 73 72 73 72 72 71 71 71 71 71 69 71
66 69 71 72 73 73 74 74 73 73 73 73 73 73 73 73 73 74 74 74 75 74 74 73 73 72 72 73 73 73 72 72 72 72 72 72 71 70 70 70 70 70 71
65 69 70 72 73 73 74 74 73 73 73 73 73 73 73 73 74 74 74 74 74 75 74 73 73 72 73 73 72 72 72 71 71 71 72 67 69 71 71 71 71 71 71
64 69 69 72 72 73 73 73 73 74 74 73 73 73 73 74 74 74 73 73 74 74 73 73 72 73 74 72 72 72 71 71 71 71 69 67 66 71 71 71 71 71 71
64 70 70 71 72 73 73 73 73 73 73 73 73 73 73 74 74 74 73 73 73 73 73 73 73 73 72 71 71 71 71 71 70 69 66 68 67 70 70 70 70 70 70
64 67 70 70 71 72 73 73 73 73 72 72 73 73 73 74 74 73 73 73 74 74 73 73 73 72 71 70 71 71 70 70 70 67 67 68 68 70 70 70 70 70 70
68 71 70 70 71 72 73 73 73 72 72 72 73 73 73 73 73 73 72 73 73 73 73 73 72 71 70 70 70 70 69 69 67 69 66 67 68 70 69 70 70 70 70
69 72 70 70 71 71 72 72 72 72 72 72 72 72 73 73 73 72 72 72 73 73 72 72 71 70 70 70 70 69 69 68 66 65 65 68 69 70 69 70 69 69 70
71 72 73 71 70 70 70 70 70 71 71 71 71 72 72 72 71 71 71 72 72 72 72 71 70 70 70 70 69 68 67 68 67 68 64 68 70 69 69 69 69 70 70
70 72 73 72 70 70 70 70 70 70 71 71 71 71 71 71 71 71 71 71 71 71 71 70 70 69 69 69 68 68 67 67 66 67 65 67 69 69 69 69 69 69 69
69 71 74 72 71 70 68 69 70 70 70 70 71 71 69 71 71 71 70 70 71 69 70 70 69 69 68 68 68 67 67 66 63 66 67 67 69 69 69 69 69 69 69
59 70 72 72 71 71 66 69 69 69 70 71 71 71 71 71 71 69 69 69 69 68 69 69 68 68 68 67 67 67 67 66 63 64 66 67 69 69 69 69 68 69 68
45 66 70 71 71 72 69 70 68 68 68 69 70 71 71 70 70 68 69 69 70 69 69 68 68 68 67 66 66 67 66 65 64 64 66 67 69 69 68 68 68 68 68
41 48 69 71 70 70 71 71 68 67 68 68 68 70 69 69 69 67 68 69 69 69 69 69 68 67 66 66 65 65 64 63 64 66 66 67 68 69 68 67 68 68 67
42 49 63 70 70 70 70 70 70 68 68 68 68 69 69 68 68 68 67 68 68 68 68 68 67 66 66 65 66 65 64 64 64 65 67 66 66 68 69 68 67 66 66
38 44 47 53 68 69 69 68 70 70 70 69 68 68 69 68 68 68 67 67 67 67 68 67 67 66 65 65 66 65 63 63 64 64 66 65 65 66 67 68 68 67 67
33 38 50 50 52 62 68 68 69 69 69 69 67 70 69 69 69 68 67 66 67 66 67 67 68 67 66 66 65 65 64 65 64 64 66 65 64 64 65 67 68 68 66
41 46 49 50 53 55 57 67 67 68 68 67 69 67 69 70 70 68 67 68 68 67 66 67 66 67 66 66 65 65 65 65 64 64 63 65 65 64 63 64 65 66 65
43 46 48 50 51 55 55 54 57 67 67 68 66 67 69 69 68 69 67 67 68 68 66 66 66 66 66 65 65 65 65 64 64 63 63 63 64 64 64 63 63 63 63
42 46 46 47 50 52 52 54 51 52 65 66 66 65 67 68 67 67 68 67 67 67 67 66 66 67 66 65 64 64 65 65 64 64 63 63 63 63 63 63 62 61 61
41 42 43 45 48 48 48 49 50 50 53 64 65 66 66 66 68 67 67 67 67 65 66 66 66 66 65 65 64 63 64 64 64 64 63 62 62 62 63 62 61 62 60
39 40 41 42 44 45 45 46 48 50 51 53 62 65 66 66 67 68 67 66 67 65 65 67 66 65 65 66 62 62 60 62 63 63 63 62 62 62 62 63 63 62 62
37 38 38 40 41 43 45 44 46 47 49 50 51 57 65 65 66 68 67 66 66 66 65 66 66 65 64 65 64 61 58 56 59 61 62 61 61 62 62 62 63 63 62
35 36 37 37 38 39 43 43 45 46 47 50 51 53 61 65 65 66 67 67 66 67 66 66 65 64 64 63 64 62 61 59 54 56 60 61 61 62 61 62 62 62 63
32 33 35 36 35 36 39 42 42 44 46 48 50 52 54 59 64 65 65 66 67 66 67 66 65 64 64 62 63 62 62 61 61 58 55 59 61 61 62 62 63 63 63
30 31 32 32 32 34 36 38 39 40 42 44 47 50 52 57 61 63 64 65 66 66 65 66 64 64 63 63 62 62 61 61 59 58 57 57 57 59 60 61 62 63 62

GFSSE_sfc_dewp_126.txt.gz
Dewpoint
69 71 72 73 73 72 72 72 72 72 72 73 73 73 73 73 73 74 74 74 74 74 73 72 72 72 72 72 72 72 72 72 72 72 72 72 71 71 72 72 71 70 71
68 71 72 73 73 73 72 72 72 72 73 73 73 73 73 73 73 74 74 74 74 74 72 72 72 72 72 71 72 71 71 71 71 72 72 71 71 72 71 71 71 70 71
68 71 72 72 73 73 73 72 73 73 73 73 73 73 73 73 73 73 73 74 74 74 73 73 72 72 71 72 71 71 71 71 71 71 71 69 70 71 71 71 71 71 71
69 70 71 72 72 73 73 72 73 73 73 73 73 73 73 73 73 73 73 73 74 74 73 72 72 72 72 71 71 70 71 71 70 70 69 68 68 71 70 70 71 70 70
69 69 71 71 72 72 73 72 72 73 73 73 73 73 73 73 73 73 72 73 74 74 73 72 73 73 71 70 70 70 70 70 69 69 67 68 69 70 70 70 70 71 70
68 69 70 70 71 72 73 72 72 72 72 72 72 73 73 73 73 73 72 73 73 74 74 73 73 72 70 70 70 70 70 69 68 67 67 69 69 70 70 70 70 70 69
69 69 70 69 70 72 73 73 72 72 71 72 72 72 73 73 73 72 72 72 72 72 73 73 71 70 70 70 70 69 69 68 63 66 66 68 68 70 70 70 70 69 70
69 69 70 70 70 71 72 72 71 71 71 71 71 72 72 72 72 71 72 72 72 72 72 72 70 70 69 69 69 68 68 66 63 62 65 67 69 69 70 70 69 69 69
70 69 69 70 70 70 70 70 70 70 70 70 71 71 71 71 70 71 71 71 72 71 71 70 70 69 69 69 69 68 67 67 63 62 64 67 69 70 69 70 69 69 69
69 69 68 69 69 69 70 69 69 69 69 70 70 70 70 70 70 70 70 71 71 71 71 70 69 69 69 68 68 67 66 67 66 66 66 66 69 70 69 69 69 69 69
68 69 68 68 68 68 69 70 70 70 70 69 70 69 69 70 70 70 70 69 70 70 70 69 68 68 68 68 68 67 66 66 65 66 66 67 69 69 69 70 70 69 69
44 67 69 68 68 68 68 69 69 70 71 70 70 70 70 70 70 70 69 68 69 69 69 68 68 67 67 67 67 67 66 66 65 65 64 67 69 70 69 70 70 69 69
33 65 69 69 68 67 67 68 68 68 69 69 69 70 69 70 70 70 69 69 69 68 69 68 67 67 67 66 66 65 66 66 65 65 64 66 68 69 69 69 69 69 69
47 54 61 63 66 67 69 67 67 68 68 69 69 69 69 69 69 69 69 69 69 69 68 68 67 67 66 66 66 65 65 65 64 65 64 65 67 69 69 69 69 68 68
46 47 51 53 54 57 59 63 68 67 67 67 69 70 69 69 69 69 68 68 68 69 68 67 67 66 66 66 66 66 65 64 64 65 65 65 65 67 69 69 68 68 68
43 45 47 47 49 51 52 54 58 63 67 67 68 69 69 69 68 69 68 68 68 68 68 67 67 66 66 66 65 65 65 63 64 65 65 65 64 65 67 69 69 68 67
41 42 43 45 45 45 48 51 54 56 59 63 67 68 68 68 68 68 67 67 68 68 68 67 67 66 65 65 65 65 64 63 64 64 65 65 65 63 65 67 68 68 68
38 38 40 42 43 43 44 47 49 52 55 57 61 64 66 68 67 67 67 66 67 67 67 67 67 66 65 64 64 64 64 63 64 64 64 64 64 65 64 65 66 67 67
35 36 36 38 38 40 42 44 45 47 51 52 53 56 59 64 68 67 67 67 66 67 67 67 66 66 65 64 64 64 63 63 63 63 64 63 63 64 64 64 64 64 65
32 33 34 35 36 36 38 40 41 42 43 45 49 53 54 56 59 65 67 66 66 66 66 66 66 66 65 64 63 63 63 63 63 63 63 64 63 63 64 64 64 64 63
30 30 31 31 33 33 34 35 36 38 40 42 45 47 52 56 57 59 65 62 65 66 66 66 65 65 65 65 62 60 60 62 63 63 63 62 63 63 63 63 63 64 63
28 29 29 29 30 31 32 33 34 36 38 40 42 45 49 51 52 55 57 64 62 65 65 65 64 64 65 64 62 60 58 59 62 63 63 63 62 63 63 62 62 63 63
27 27 28 28 28 30 31 30 31 32 33 36 39 40 43 46 47 50 52 56 63 61 61 64 65 64 62 64 63 60 58 57 58 60 62 62 62 62 62 62 62 62 62
27 27 27 27 28 28 29 29 30 30 30 32 34 38 39 43 45 47 50 54 57 63 62 63 65 64 63 61 63 63 59 58 56 56 60 62 62 61 61 62 61 61 61
27 27 27 28 28 28 29 29 29 29 30 31 33 34 37 39 41 44 48 51 54 59 62 63 63 63 63 62 61 59 60 58 56 55 53 59 61 61 61 61 61 61 60
28 29 29 28 29 29 29 29 28 28 29 30 31 33 34 37 39 42 45 49 54 56 57 62 63 63 63 63 63 62 60 58 57 56 54 56 59 60 61 61 61 61 61

GFSSE_sfc_dewp_129.txt.gz
Dewpoint
68 71 72 73 73 72 72 72 71 72 73 73 73 73 73 73 73 74 74 74 74 74 73 72 72 71 70 70 71 72 72 72 72 72 72 72 71 71 71 72 71 70 71
68 71 71 72 73 72 72 72 72 72 73 73 73 73 73 73 73 73 74 74 74 73 72 71 71 71 71 71 71 71 72 71 71 71 72 71 71 71 71 71 71 70 71
69 71 72 72 72 72 73 72 72 73 73 73 73 72 73 73 73 74 74 74 73 73 72 71 71 71 71 71 71 71 71 71 71 71 71 69 69 71 71 71 71 71 71
69 71 71 72 72 72 72 72 73 73 73 73 73 73 72 73 73 73 73 73 74 73 72 72 71 71 71 71 70 71 71 70 70 70 69 69 69 71 71 70 70 70 70
69 70 71 71 72 72 72 72 72 73 72 72 72 73 73 73 73 73 73 73 73 74 72 72 72 72 71 70 70 70 70 70 69 68 67 68 68 70 70 70 70 70 70
68 69 70 70 71 72 72 72 72 72 71 71 72 72 73 73 73 72 72 73 74 74 73 73 73 71 70 70 69 70 70 69 68 67 67 69 68 70 70 70 70 70 70
68 69 70 69 71 72 73 72 72 71 71 71 71 72 72 73 73 72 72 72 73 73 73 73 72 70 70 70 69 69 69 67 66 67 67 68 68 70 70 70 70 70 70
68 69 69 70 70 71 72 71 71 71 71 71 71 71 72 72 71 71 71 72 72 72 72 71 70 70 69 69 69 68 67 65 64 65 66 66 68 71 70 70 69 69 69
68 68 68 69 70 70 70 70 70 70 70 70 70 70 71 71 70 71 71 71 71 71 71 71 70 69 69 69 68 67 66 66 59 63 65 66 69 70 69 69 69 69 69
68 67 67 67 68 68 69 69 69 69 69 70 70 70 70 70 70 70 70 71 71 71 71 70 69 69 69 68 68 67 66 66 63 64 64 66 69 70 69 69 69 70 69
63 67 66 67 67 68 68 70 70 70 69 69 70 69 68 70 70 70 69 69 70 70 70 69 69 68 68 68 68 67 66 66 65 65 65 66 68 69 69 70 70 70 69
46 61 67 66 66 67 68 68 68 69 70 70 70 69 70 70 69 70 69 68 69 68 69 68 68 67 67 67 67 67 65 65 65 65 64 66 68 69 69 69 69 69 69
50 52 55 59 65 67 68 68 67 68 69 69 69 70 70 69 69 69 68 68 68 68 69 68 66 66 66 66 66 65 65 65 64 64 64 66 68 70 69 69 69 69 69
46 48 50 52 54 56 58 60 66 68 68 68 68 69 69 69 68 68 68 69 69 69 68 68 67 67 66 66 65 65 65 64 64 64 64 64 67 69 70 69 69 69 68
42 44 47 47 49 52 53 56 57 59 61 66 68 68 68 68 68 68 67 68 68 68 68 67 66 66 65 65 65 65 64 64 64 64 64 64 65 67 68 69 69 69 68
39 40 43 43 44 47 49 51 54 56 59 61 63 64 67 68 67 68 68 68 67 68 67 66 66 65 65 66 65 65 64 64 63 64 64 64 63 65 67 69 69 68 68
36 37 38 39 38 40 44 47 50 52 55 57 59 60 60 61 66 67 67 68 67 67 67 66 66 66 64 65 64 65 65 64 63 64 64 64 64 63 64 66 68 68 68
32 33 34 35 35 35 37 41 43 48 50 52 53 56 59 59 59 60 66 67 67 68 67 67 66 65 64 64 64 64 64 64 63 63 64 64 64 64 63 64 66 67 68
30 30 31 32 32 33 34 37 39 44 46 48 49 52 53 54 58 59 64 65 65 66 67 67 66 65 64 64 64 63 64 64 63 63 63 63 63 64 64 63 64 64 66
28 28 29 30 30 31 33 34 35 39 39 41 45 47 50 53 55 58 60 60 62 62 65 66 66 66 65 64 63 63 63 63 63 63 63 63 63 63 64 64 64 64 63
27 27 27 28 29 30 31 30 31 32 32 38 37 41 47 50 52 54 57 57 56 62 62 64 65 65 64 64 61 61 61 61 62 63 63 63 63 63 63 64 64 65 64
26 27 27 27 28 28 29 29 30 30 32 33 37 40 42 46 47 46 49 52 55 59 62 62 64 63 64 65 61 61 59 61 62 62 63 62 63 63 62 63 63 63 64
26 27 28 28 28 29 29 29 29 29 30 31 32 33 36 38 41 46 47 49 53 57 61 60 61 63 61 63 63 59 57 57 59 61 62 62 62 62 62 62 62 62 63
27 28 29 29 28 29 30 29 28 28 28 29 30 31 33 36 39 42 44 45 49 53 56 60 61 60 61 61 62 63 61 59 57 56 60 62 62 62 62 62 62 62 62
28 28 28 28 29 29 29 29 29 28 29 30 30 31 32 34 36 39 42 45 47 50 54 58 60 59 60 61 61 61 61 60 59 56 56 60 62 62 62 62 62 62 61
27 27 27 30 28 28 28 28 28 28 29 30 31 31 32 34 35 37 39 41 46 50 53 57 59 61 61 61 61 61 59 58 57 57 55 56 59 60 62 62 61 61 61

GFSSE_sfc_dewp_132.txt.gz
Dewpoint
67 70 72 73 73 72 72 71 72 72 73 73 74 74 74 73 74 74 74 74 74 74 71 72 72 71 71 71 72 72 72 72 72 72 72 72 71 71 71 72 71 69 71
65 71 71 72 73 72 72 71 72 72 73 73 73 73 73 73 74 74 74 74 74 73 72 72 71 70 70 71 71 72 72 71 71 72 72 71 70 71 71 71 71 70 71
68 71 71 72 72 72 72 72 72 73 73 73 73 73 73 73 73 73 73 73 73 73 71 71 71 70 70 71 71 72 71 71 71 71 72 70 69 71 71 71 71 71 71
69 70 71 71 72 72 72 72 72 73 73 73 73 73 73 73 73 73 73 73 73 73 72 71 71 71 71 70 71 71 71 71 71 71 69 69 70 71 71 70 71 71 71
69 70 71 71 71 72 72 72 72 72 72 72 72 73 73 73 73 73 73 73 73 73 72 71 71 71 71 70 70 70 70 70 70 68 68 69 69 70 70 70 70 71 71
69 70 69 70 71 72 72 72 72 72 71 71 72 72 73 73 73 73 73 73 73 73 73 73 73 71 70 69 70 70 70 69 68 67 68 69 69 71 70 71 70 70 70
68 69 70 69 70 72 72 72 72 71 71 71 71 72 72 73 73 72 72 73 73 73 73 73 72 70 70 69 69 69 69 68 67 67 67 68 69 70 70 70 70 70 70
68 68 69 70 70 71 71 71 71 71 71 71 71 71 72 72 72 71 71 72 72 72 72 72 71 70 69 69 69 68 68 66 67 67 67 67 68 70 70 70 70 69 69
68 68 68 68 69 70 70 70 70 70 70 70 70 70 71 71 70 71 71 71 71 71 71 71 70 69 69 69 68 67 66 65 64 66 66 67 69 70 70 70 70 69 70
62 67 67 67 68 68 68 68 68 69 69 69 70 70 69 69 70 70 70 71 71 71 71 70 69 69 69 68 68 67 66 65 60 63 65 66 68 69 69 70 70 70 70
59 61 67 66 67 67 67 69 69 70 68 69 69 69 68 69 68 69 69 69 70 69 70 70 69 68 68 68 68 67 66 66 63 64 64 67 68 69 69 70 69 69 70
49 51 55 58 60 66 68 67 67 69 69 70 70 69 70 70 70 69 69 68 69 68 69 68 68 67 67 67 67 67 66 66 65 65 64 66 68 69 70 70 69 68 69
46 47 48 49 53 54 55 60 66 68 69 69 68 69 70 69 69 70 68 68 68 68 69 68 67 66 66 66 66 65 65 65 65 65 65 65 68 69 70 70 69 69 68
40 42 46 45 46 49 52 54 55 58 61 66 67 68 68 68 67 68 68 68 68 69 69 68 68 66 66 65 65 65 65 65 64 64 64 64 66 70 70 69 69 69 69
35 36 38 39 39 43 46 49 52 53 57 60 63 62 65 68 67 68 68 68 67 67 68 67 67 66 66 66 65 65 64 64 64 64 64 64 65 68 70 70 69 68 68
32 33 34 35 35 36 40 43 47 50 52 55 57 59 61 62 63 67 67 68 67 67 67 67 66 66 65 65 65 65 64 64 64 64 64 64 63 65 68 69 69 69 68
30 31 32 33 32 32 34 38 41 46 49 50 51 54 56 59 59 60 63 66 67 68 67 67 66 65 65 65 64 65 65 64 64 63 63 64 64 62 64 66 68 68 69
28 28 30 30 31 31 32 35 35 41 46 46 46 51 52 51 55 58 59 63 63 64 67 67 66 65 65 64 64 64 64 64 64 64 63 64 64 64 63 64 66 68 68
27 27 28 29 29 30 31 33 33 37 42 38 44 45 46 48 54 55 57 59 63 61 57 65 66 65 64 64 64 64 64 64 64 64 63 63 64 64 64 63 63 64 66
27 28 28 29 29 30 30 30 31 33 33 34 38 39 42 48 48 52 53 55 57 59 58 60 62 64 64 64 64 63 64 64 63 64 63 63 63 64 64 64 64 64 63
27 28 28 29 30 29 29 29 29 30 30 33 33 37 41 39 46 47 46 49 51 54 56 60 60 61 61 63 62 62 63 63 63 63 63 63 63 63 64 64 64 65 65
27 28 29 29 29 29 29 29 29 29 30 31 33 34 35 39 38 39 42 46 48 50 54 58 59 58 59 61 61 60 58 60 61 62 63 63 63 63 63 63 64 64 65
28 28 28 28 29 29 30 29 29 29 30 30 30 31 32 33 36 38 41 44 45 48 50 53 59 59 57 59 60 60 56 55 59 61 62 62 62 63 63 62 63 63 64
27 28 27 28 29 28 28 28 28 28 28 29 30 31 32 33 35 37 38 39 42 43 46 50 53 61 60 56 60 63 62 60 56 56 61 62 63 62 63 63 62 62 63
26 26 27 29 27 27 27 27 28 28 28 30 30 31 32 33 35 36 38 39 41 44 45 48 52 54 59 59 57 58 58 59 60 57 55 59 62 62 62 63 63 62 62
26 26 27 29 27 28 28 28 27 27 27 28 29 30 34 35 36 37 38 39 39 41 43 47 52 54 57 58 58 57 57 57 57 57 56 56 58 60 62 63 63 62 62

GFSSE_sfc_dewp_138.txt.gz
Dewpoint
63 69 73 73 72 72 72 72 73 74 74 74 73 73 73 73 73 73 74 74 74 74 73 72 71 70 71 72 72 72 73 73 73 73 73 72 71 71 71 72 71 66 72
65 69 72 73 72 72 71 72 72 73 74 74 73 73 73 73 73 73 74 74 74 74 73 72 71 70 71 71 72 72 73 72 72 72 73 72 71 71 71 71 71 68 72
68 69 71 72 72 72 72 71 72 72 73 74 74 73 73 73 73 74 73 74 74 74 73 72 71 70 71 71 72 72 72 72 72 72 72 67 67 71 71 70 71 72 71
67 68 70 72 72 72 72 72 72 72 72 73 73 74 74 74 74 74 73 73 74 73 72 72 71 70 71 71 71 72 72 72 71 71 66 66 66 71 71 70 71 70 71
67 67 71 72 72 72 71 71 71 72 72 72 73 73 74 74 74 74 73 73 73 73 72 72 71 72 71 70 71 71 71 71 71 69 62 64 66 69 71 70 70 71 71
68 68 70 71 72 72 71 71 71 71 72 72 72 73 73 73 73 74 73 73 73 73 73 73 73 72 70 70 70 71 70 70 70 64 62 66 65 70 71 71 70 70 70
70 70 70 70 71 72 72 72 71 72 71 71 72 72 73 73 72 72 72 72 73 73 73 73 73 71 70 70 70 70 70 70 66 64 63 65 66 71 70 71 70 70 70
64 65 67 70 70 70 71 71 71 71 71 71 71 72 72 72 72 72 72 72 72 73 72 72 72 71 70 69 70 69 68 69 66 63 63 64 69 70 70 70 70 69 70
56 57 57 58 60 66 69 69 69 70 70 70 71 71 71 71 71 71 71 71 71 71 72 71 71 70 70 69 69 68 67 68 65 63 62 62 70 70 70 70 70 70 70
55 52 51 53 54 58 62 65 69 69 69 69 69 70 70 70 70 70 70 70 71 71 71 71 70 70 69 69 68 68 67 67 66 63 63 62 69 70 70 71 70 70 70
51 51 50 49 50 54 57 59 64 66 69 69 69 69 68 69 68 68 68 68 70 70 70 70 69 69 68 68 68 68 67 66 64 62 61 68 69 70 70 70 70 70 69
46 46 47 48 48 50 49 56 57 60 64 67 67 69 70 71 71 69 68 68 68 68 68 69 69 68 68 65 65 67 66 64 62 61 60 67 68 69 70 70 70 70 69
41 41 43 45 47 47 47 48 50 52 56 62 60 62 65 70 71 71 71 71 70 68 66 67 67 67 66 64 62 67 64 64 62 61 61 66 68 69 69 70 70 70 69
37 39 41 43 44 45 44 43 45 46 50 53 55 58 60 62 67 69 70 69 70 71 69 70 70 69 67 66 64 64 66 64 62 61 61 65 66 69 69 70 70 70 69
34 37 40 40 41 42 43 44 44 45 46 50 49 54 57 58 58 60 64 68 69 70 70 70 69 69 68 67 66 66 65 65 64 62 61 64 65 67 69 70 70 69 70
33 35 39 38 41 41 41 44 44 43 44 47 46 48 52 51 53 53 59 64 66 69 69 69 68 68 68 68 67 66 66 65 65 64 62 62 64 65 67 69 70 70 70
32 34 38 38 40 41 41 41 41 40 42 44 42 48 48 48 50 53 55 58 61 64 66 64 62 62 66 67 66 67 67 66 65 64 64 62 62 62 64 66 68 69 69
32 34 36 36 39 40 40 39 38 39 41 40 40 44 45 47 51 50 48 51 54 59 61 62 59 59 61 61 60 62 67 66 65 65 65 64 61 59 62 64 66 67 68
31 34 35 37 38 39 39 38 39 40 39 38 39 39 42 46 46 45 44 48 52 50 53 59 60 58 57 58 59 61 62 66 66 65 64 64 65 62 59 62 63 64 66
32 34 34 35 38 38 36 37 35 36 37 37 37 38 41 41 43 43 43 45 47 46 48 50 58 59 59 56 57 59 59 61 66 66 65 64 64 65 64 61 64 63 62
33 33 33 34 37 34 32 33 33 34 34 36 36 39 40 40 42 42 41 43 44 45 46 48 51 55 58 58 57 58 61 63 66 65 65 65 64 63 65 64 61 61 62
32 33 32 32 34 33 32 32 32 33 33 35 36 38 39 39 40 40 41 41 43 43 46 48 50 48 52 56 56 59 56 57 62 64 64 63 63 63 64 64 63 62 62
31 32 31 32 32 33 34 31 31 32 32 33 34 34 35 37 38 39 41 41 42 43 43 45 47 49 48 52 60 55 53 51 52 58 63 62 64 64 64 63 63 63 62
30 32 31 32 31 31 32 30 31 29 28 30 31 32 33 36 36 37 38 39 40 41 43 44 44 46 47 48 53 58 61 56 51 51 58 62 63 63 64 64 63 63 62
30 30 31 32 30 31 31 31 29 29 28 28 30 31 32 34 35 35 37 38 38 41 41 43 44 46 46 46 47 52 59 59 59 58 54 57 63 63 63 64 65 64 64
29 31 31 31 30 30 30 30 29 28 28 27 28 29 30 31 33 35 36 38 39 40 41 42 42 44 44 46 46 50 54 55 57 57 56 57 58 61 63 65 66 67 65